[[{"header":{"parameterUnit":"m.s-1","parameterCategory":1,"la1":30.2991,"la2":30.254,"lo1":-89.0895,"lo2":-89.0444,"dy":0.0017,"dx":0.0017,"nx":28,"ny":28,"refTime":"2024-12-23T03:00:00:Z","depth":0,"parameterNumber":2,"parameterNumberName":"U-component_of_WINDS"},"data":[0,0,0,0,0,0,0,0,0,0,0,0,0,0,0,0,0,0,0,0,0,0,0,0,0,0,0,0,0,0,0,0,0,0,0,0,0,0,0,0,0,0,0,0,0,0,0,0,0,0,0,0,0,0,0,0,0,0,-3.91,-3.91,0,-3.9121,-3.9121,-3.9121,-3.897,-3.8966,-3.8961,-3.8957,-3.898,-3.8984,-3.8989,0,0,0,0,0,0,0,0,0,0,0,0,0,-3.8929,-3.8933,-3.91,-3.91,-3.91,-3.9121,-3.9121,-3.9121,-3.8971,-3.8965,-3.896,-3.8955,-3.8979,-3.8984,-3.8989,0,0,0,0,0,0,0,0,0,0,0,0,0,-3.8982,-3.8934,-3.91,-3.9028,-3.9021,-3.9121,-3.9121,-3.9121,-3.8972,-3.8965,-3.8959,-3.8953,-3.8977,-3.8983,-3.899,-3.916,0,0,-3.9011,-3.9014,0,0,0,0,0,0,0,0,-3.8979,-3.8988,-3.9038,-3.9033,-3.9026,-3.9036,-3.9069,-3.9134,-3.8973,-3.8991,-3.8957,-3.895,-3.9004,-3.9008,-3.9026,-3.9161,-3.9162,-3.9012,-3.9016,-3.9019,-3.9021,0,0,0,0,0,0,0,-3.8976,-3.8987,-3.9108,-3.9039,-3.9031,-3.8994,-3.8994,-3.9081,-3.9033,-3.8989,-3.8978,-3.8982,-3.8999,-3.902,-3.9026,-3.9162,-3.9011,-3.9018,-3.9022,-3.9024,-3.9437,-3.9444,0,0,0,0,0,0,-3.8982,-3.8985,-3.9107,-3.9109,-3.8986,-3.9002,-3.9003,-3.9039,-3.9031,-3.9024,-3.8988,-3.8975,-3.9011,-3.9018,-3.9026,-3.9224,-3.9019,-3.9025,-3.9029,-3.9431,-3.9439,-3.9446,0,0,0,0,0,0,-3.8979,-3.8994,-3.9106,-3.9044,-3.9055,-3.9012,-3.9054,-3.9043,-3.9063,-3.9031,-3.9021,-3.9017,-3.9007,-3.9016,-3.9128,-3.9223,-3.9028,-3.9034,-3.9422,-3.9433,-3.9443,-3.9623,0,0,0,0,0,0,-3.8974,-3.8994,-3.9058,-3.9046,-3.9059,-3.9209,-3.906,-3.9048,-3.9076,-3.9059,-3.9056,-3.905,-3.9002,-3.9118,-3.9135,-3.9229,-3.904,-3.9414,-3.9427,-3.9439,-3.9609,-3.9638,-3.9664,0,0,0,0,0,-3.8969,-3.9109,-3.9062,-3.9078,-3.9139,-3.9215,-3.9222,-3.9164,-3.9084,-3.9148,-3.9127,-3.905,-3.921,-3.9131,-3.9148,-3.9246,-3.9408,-3.9423,-3.9438,-3.9596,-3.9632,-3.9663,0,0,0,0,0,0,-3.9133,-3.9106,-3.9054,-3.9194,-3.9208,-3.9189,-3.9268,-3.9205,-3.9242,-3.9225,-3.9152,-3.9153,-3.9277,-3.9272,-3.9185,-3.9409,-3.9294,-3.9314,-3.9409,-3.9443,-3.947,-3.9469,-3.9045,0,0,0,0,0,-3.9186,-3.925,-3.9222,-3.9348,-3.9358,-3.9312,-3.9343,-3.9298,-3.9309,-3.9314,-3.9301,-3.9315,-3.9368,-3.9405,-3.9452,-3.9606,-3.9604,-3.9682,-3.971,-3.9732,-3.9751,-3.9832,-3.9866,-3.9497,-3.9497,-3.9497,0,0,-3.9295,-3.9288,-3.9333,-3.9381,-3.9386,-3.9454,-3.9318,-3.9396,-3.9446,-3.9326,-3.943,-3.9421,-3.9432,-3.9566,-3.9624,-3.9566,-3.9852,-3.9752,-3.9771,-3.9776,-3.9851,-3.9886,-3.9918,-3.9507,-3.9506,-3.9504,0,0,-3.953,-3.9531,-3.9636,-3.9643,-3.9653,-3.9621,-3.9647,-3.9637,-3.9627,-3.973,-3.9642,-3.9699,-3.9793,-3.9804,-3.9822,-4.0059,-3.999,-4.0077,-4.0222,-4.0302,-4.0331,-4.0356,-4.0442,-4.0473,-4.0095,-4.0095,-4.0095,0,-3.9665,-3.9763,-3.9698,-3.9782,-3.9805,-3.9699,-3.9805,-3.9816,-3.9841,-3.986,-3.9793,-3.9908,-3.9907,-4.0042,-4.01,-4.0118,-4.0145,-4.0077,-4.0332,-4.0357,-4.038,-4.046,-4.0492,-4.0106,-4.0104,-4.0103,-4.0102,0,-3.9929,-3.9999,-4.0083,-4.0109,-4.0142,-4.0237,-4.0185,-4.0226,-4.0177,-4.0153,-4.026,-4.0255,-4.03,-4.0328,-4.0281,-4.0457,-4.042,-4.0344,-4.0227,-4.0427,-4.0501,-4.0531,-4.0121,-4.0117,-4.0114,-4.0111,0,0,-4.0269,-4.0257,-4.0289,-4.0299,-4.0301,-4.0354,-4.0443,-4.0486,-4.0523,-4.0543,-4.0617,-4.0698,-4.0627,-4.0648,-4.0601,-4.0671,-4.086,-4.0586,-4.0585,-4.0638,-4.1053,-4.1111,-4.1148,-4.0813,-4.0819,-4.0823,-4.1052,0,-4.0498,-4.0651,-4.0594,-4.075,-4.0814,-4.0713,-4.0791,-4.0801,-4.078,-4.0831,-4.0807,-4.0866,-4.0768,-4.078,-4.0845,-4.0824,-4.0943,-4.0806,-4.0881,-4.0885,-4.0883,-4.1186,-4.1248,-4.1465,-4.1081,-4.1086,-4.1089,0,-4.0786,-4.0818,-4.0981,-4.0971,-4.0996,-4.1067,-4.1101,-4.1151,-4.116,-4.1139,-4.1162,-4.11,-4.1187,-4.1069,-4.1188,-4.1096,-4.1123,-4.1117,-4.1124,-4.113,-4.1,-4.1202,-4.1532,-4.1566,-4.1134,-4.1131,-4.1128,0,-4.1019,-4.1102,-4.121,-4.1222,-4.1213,-4.1266,-4.1265,-4.1267,-4.1296,-4.1326,-4.1344,-4.1384,-4.1406,-4.1439,-4.1389,-4.1308,-4.1515,-4.1393,-4.1501,-4.1503,-4.155,-4.1548,-4.1892,-4.1567,-4.1566,-4.1566,-4.1565,0,-4.1282,-4.1386,-4.1314,-4.1381,-4.1494,-4.1427,-4.1541,-4.1529,-4.1531,-4.1594,-4.1509,-4.1569,-4.1499,-4.1553,-4.1514,-4.1618,-4.1629,-4.1615,-4.1604,-4.1624,-4.1626,-4.1641,-4.1625,-4.1574,-4.1572,-4.1571,-4.1569,0,-4.1561,-4.1518,-4.1629,-4.1612,-4.1609,-4.1694,-4.1678,-4.1739,-4.1712,-4.1792,-4.1807,-4.1764,-4.1823,-4.1776,-4.1833,-4.1807,-4.1946,-4.1912,-4.1943,-4.1934,-4.2045,-4.2036,-4.2412,-4.2457,-4.2103,-4.2106,-4.2109,0,-4.1732,-4.181,-4.18,-4.1836,-4.184,-4.1898,-4.1927,-4.1864,-4.1898,-4.1913,-4.1973,-4.2024,-4.2062,-4.216,-4.2135,-4.2178,-4.2146,-4.2274,-4.2152,-4.2169,-4.2148,-4.2145,-4.2152,-4.23,-4.2304,-4.2307,-4.231,0,-4.2041,-4.2015,-4.206,-4.2099,-4.2136,-4.2163,-4.2183,-4.2217,-4.2152,-4.2195,-4.2254,-4.2283,-4.2341,-4.2393,-4.2428,-4.2426,-4.2359,-4.2348,-4.2376,-4.2397,-4.2412,-4.2406,-4.2012,-4.2341,-4.2337,-4.2335,-4.2334,-4.2332,-4.2271,-4.2335,-4.2339,-4.2392,-4.24,-4.2421,-4.2477,-4.2457,-4.2505,-4.2547,-4.2506,-4.2578,-4.2583,-4.2622,-4.2629,-4.2684,-4.263,-4.267,-4.268,-4.2691,-4.2708,-4.2403,-4.269,-4.2689,-4.2688,-4.2687,-4.2686,0,-4.2575,-4.2572,-4.2622,-4.2653,-4.2695,-4.2626,-4.2645,-4.2684,-4.2748,-4.2759,-4.2798,-4.2865,-4.2915,-4.2893,-4.2937,-4.2985,-4.2955,-4.2998,-4.2995,-4.2996,-4.2752,-4.2725,-4.3022,-4.3022,-4.3022,-4.3022,-4.3022,-4.3022,-4.2739,-4.2844,-4.2819,-4.2926,-4.2922,-4.2991,-4.3008,-4.3026,-4.3035,-4.3114,-4.3155,-4.314,-4.3137,-4.318,-4.3223,-4.3215,-4.3235,-4.3291,-4.3272,-4.3046,-4.3013,-4.2981,-4.2955,-4.3295,-4.3296,-4.351,-4.3512,-4.3514]},{"header":{"parameterUnit":"m.s-1","parameterCategory":1,"la1":30.2991,"la2":30.254,"lo1":-89.0895,"lo2":-89.0444,"dy":0.0017,"dx":0.0017,"nx":28,"ny":28,"refTime":"2024-12-23T03:00:00:Z","depth":0,"parameterNumber":3,"parameterNumberName":"V-component_of_WINDS"},"data":[0,0,0,0,0,0,0,0,0,0,0,0,0,0,0,0,0,0,0,0,0,0,0,0,0,0,0,0,0,0,0,0,0,0,0,0,0,0,0,0,0,0,0,0,0,0,0,0,0,0,0,0,0,0,0,0,0,0,-2.3219,-2.322,0,-2.3322,-2.3323,-2.3324,-2.3326,-2.3325,-2.3324,-2.3323,-2.3426,-2.343,-2.3434,0,0,0,0,0,0,0,0,0,0,0,0,0,-2.3021,-2.3024,-2.3219,-2.322,-2.3221,-2.3322,-2.3323,-2.3325,-2.3327,-2.3325,-2.3324,-2.3322,-2.3425,-2.343,-2.3434,0,0,0,0,0,0,0,0,0,0,0,0,0,-2.3113,-2.3025,-2.3219,-2.3235,-2.3237,-2.3322,-2.3323,-2.3325,-2.3327,-2.3325,-2.3323,-2.3321,-2.3423,-2.3429,-2.3435,-2.351,0,0,-2.3453,-2.3456,0,0,0,0,0,0,0,0,-2.3108,-2.3121,-2.3231,-2.3234,-2.3237,-2.3309,-2.3291,-2.3387,-2.3327,-2.3293,-2.3323,-2.332,-2.3389,-2.3397,-2.3421,-2.3515,-2.3519,-2.3454,-2.3457,-2.346,-2.3462,0,0,0,0,0,0,0,-2.3102,-2.3116,-2.326,-2.3232,-2.3236,-2.3236,-2.3247,-2.331,-2.335,-2.3296,-2.3296,-2.3308,-2.339,-2.3415,-2.3423,-2.3521,-2.3454,-2.3459,-2.3462,-2.3465,-2.368,-2.3682,0,0,0,0,0,0,-2.3092,-2.3111,-2.3256,-2.3263,-2.3166,-2.3241,-2.3253,-2.3288,-2.335,-2.3357,-2.331,-2.3308,-2.3406,-2.3417,-2.3427,-2.3518,-2.346,-2.3465,-2.3469,-2.3678,-2.3681,-2.3683,0,0,0,0,0,0,-2.3088,-2.3105,-2.3252,-2.3187,-2.3206,-2.3246,-2.3285,-2.3291,-2.3316,-2.336,-2.3367,-2.3328,-2.3405,-2.3419,-2.3489,-2.3522,-2.3468,-2.3473,-2.3675,-2.3679,-2.3682,-2.3702,0,0,0,0,0,0,-2.3083,-2.3104,-2.3134,-2.3188,-2.3209,-2.3314,-2.3287,-2.3294,-2.3327,-2.3325,-2.338,-2.3387,-2.3405,-2.348,-2.3495,-2.3529,-2.3478,-2.3673,-2.3677,-2.3681,-2.3698,-2.3705,-2.3711,0,0,0,0,0,-2.3075,-2.3135,-2.3135,-2.3153,-2.3247,-2.3315,-2.3328,-2.3348,-2.3329,-2.3359,-2.3387,-2.3385,-2.3516,-2.3488,-2.3504,-2.3541,-2.3671,-2.3676,-2.3681,-2.3696,-2.3704,-2.3711,0,0,0,0,0,0,-2.3083,-2.3142,-2.3143,-2.3222,-2.3264,-2.3316,-2.3354,-2.3356,-2.3403,-2.34,-2.3422,-2.3434,-2.3504,-2.3529,-2.3497,-2.3616,-2.3591,-2.36,-2.3597,-2.3605,-2.3612,-2.3604,-2.3483,0,0,0,0,0,-2.3094,-2.3145,-2.3194,-2.3259,-2.328,-2.3313,-2.3344,-2.3355,-2.3399,-2.3417,-2.345,-2.3492,-2.3542,-2.3575,-2.3624,-2.3702,-2.3713,-2.3735,-2.3741,-2.3746,-2.3753,-2.3796,-2.3806,-2.3699,-2.3699,-2.3699,0,0,-2.3117,-2.3156,-2.3187,-2.3261,-2.3295,-2.3347,-2.3328,-2.3384,-2.3422,-2.3425,-2.3494,-2.3519,-2.3567,-2.3642,-2.3676,-2.3665,-2.3785,-2.3753,-2.3756,-2.3761,-2.3802,-2.3812,-2.3821,-2.3702,-2.3702,-2.3701,0,0,-2.3186,-2.322,-2.3278,-2.3312,-2.3363,-2.3385,-2.3399,-2.345,-2.3468,-2.3537,-2.354,-2.3585,-2.3672,-2.3706,-2.3734,-2.3814,-2.3814,-2.383,-2.3863,-2.3904,-2.3913,-2.392,-2.3948,-2.3958,-2.3836,-2.3837,-2.3837,0,-2.3208,-2.3287,-2.3307,-2.3363,-2.3395,-2.34,-2.3458,-2.349,-2.3554,-2.3576,-2.3562,-2.3671,-2.3704,-2.3786,-2.3805,-2.3828,-2.3844,-2.3824,-2.391,-2.3918,-2.3925,-2.3952,-2.3962,-2.3838,-2.3838,-2.3838,-2.3838,0,-2.3311,-2.3365,-2.3405,-2.3468,-2.3505,-2.3561,-2.3589,-2.3623,-2.3631,-2.3654,-2.3724,-2.3763,-2.382,-2.384,-2.3849,-2.3923,-2.3915,-2.3905,-2.3881,-2.3936,-2.3962,-2.3972,-2.384,-2.384,-2.3839,-2.3839,0,0,-2.3388,-2.346,-2.3475,-2.3503,-2.3559,-2.3601,-2.3657,-2.3713,-2.3742,-2.3786,-2.3833,-2.3906,-2.3897,-2.3929,-2.3941,-2.3977,-2.4037,-2.3964,-2.3965,-2.3976,-2.4121,-2.4128,-2.4139,-2.4037,-2.4039,-2.4041,-2.4117,0,-2.3462,-2.3563,-2.3582,-2.3669,-2.3719,-2.3724,-2.3773,-2.3812,-2.3835,-2.388,-2.3904,-2.3955,-2.394,-2.396,-2.3995,-2.4023,-2.4067,-2.4017,-2.408,-2.4083,-2.4068,-2.4153,-2.4161,-2.423,-2.4127,-2.4129,-2.413,0,-2.3563,-2.3609,-2.3702,-2.3751,-2.3772,-2.3816,-2.3868,-2.3911,-2.3955,-2.3969,-2.4005,-2.4013,-2.407,-2.4043,-2.4121,-2.4087,-2.4114,-2.4131,-2.4134,-2.4141,-2.411,-2.4162,-2.4253,-2.4264,-2.4146,-2.4145,-2.4144,0,-2.3609,-2.3695,-2.3761,-2.3785,-2.3844,-2.3874,-2.39,-2.3942,-2.3974,-2.4019,-2.404,-2.4091,-2.4119,-2.4158,-2.4179,-2.4157,-2.4256,-2.4231,-2.4268,-2.4268,-2.4289,-2.4287,-2.4386,-2.4306,-2.4306,-2.4306,-2.4306,0,-2.369,-2.3746,-2.3783,-2.3823,-2.3886,-2.3907,-2.3968,-2.3993,-2.4031,-2.4075,-2.4082,-2.4124,-2.4149,-2.4194,-2.4211,-2.4273,-2.4286,-2.4298,-2.4302,-2.4297,-2.4296,-2.4315,-2.4311,-2.4309,-2.4308,-2.4308,-2.4307,0,-2.3753,-2.3779,-2.3852,-2.3901,-2.3915,-2.3959,-2.4001,-2.404,-2.4062,-2.4119,-2.4133,-2.4167,-2.4221,-2.4245,-2.4311,-2.4322,-2.4393,-2.4393,-2.4378,-2.438,-2.4416,-2.4412,-2.453,-2.4547,-2.4456,-2.4457,-2.4458,0,-2.3803,-2.3846,-2.39,-2.3931,-2.3958,-2.4007,-2.404,-2.4062,-2.4095,-2.4148,-2.4181,-2.4234,-2.4279,-2.4363,-2.4394,-2.4444,-2.4445,-2.4483,-2.4453,-2.4447,-2.4446,-2.4443,-2.4447,-2.4489,-2.449,-2.449,-2.4491,0,-2.3888,-2.3899,-2.3947,-2.3998,-2.4037,-2.4079,-2.412,-2.4144,-2.4172,-2.4209,-2.4264,-2.4299,-2.4366,-2.4419,-2.4471,-2.4496,-2.4498,-2.45,-2.4512,-2.4508,-2.4497,-2.4503,-2.4393,-2.4498,-2.4497,-2.4496,-2.4496,-2.4496,-2.3946,-2.3985,-2.4029,-2.4081,-2.4114,-2.4152,-2.4191,-2.4217,-2.4264,-2.432,-2.433,-2.4388,-2.443,-2.45,-2.4527,-2.4573,-2.4564,-2.458,-2.4584,-2.4588,-2.459,-2.449,-2.4582,-2.4582,-2.4582,-2.4582,-2.4582,0,-2.4032,-2.4061,-2.4108,-2.4165,-2.4206,-2.4205,-2.4249,-2.4283,-2.4335,-2.4374,-2.4417,-2.4479,-2.453,-2.4564,-2.4616,-2.4645,-2.4648,-2.4658,-2.4656,-2.4662,-2.4595,-2.458,-2.4655,-2.4655,-2.4655,-2.4655,-2.4655,-2.4655,-2.4082,-2.4147,-2.4162,-2.4243,-2.4271,-2.4328,-2.4354,-2.4388,-2.442,-2.4489,-2.4532,-2.4554,-2.4591,-2.4645,-2.4691,-2.47,-2.4718,-2.4729,-2.4737,-2.4674,-2.4667,-2.4659,-2.4645,-2.4733,-2.4733,-2.48,-2.4801,-2.4801]}]]